{"data":{"norad_id":61214,"epoch":"2026-09-21T21:07:31.792512Z","epoch_age_seconds":72851,"freshness":"FRESH","line1":"1 61214U 24171Q   26264.88022908 -.00000210  00000+0  49149-5 0  9991","line2":"2 61214  53.1593 127.0809 0001405 100.4271 259.6890 15.34382945112461","mean_motion":15.34382945,"eccentricity":0.0001405,"inclination_deg":53.1593,"raan_deg":127.0809,"arg_perigee_deg":100.4271,"mean_anomaly_deg":259.689,"bstar":4.9149e-6,"rev_number":11246,"period_min":93.848801219568,"perigee_km":461.79278655491,"apogee_km":463.71507690673,"semimajor_km":6840.8909317308,"source":"CELESTRAK","updated_at":"2026-09-22T09:00:49.342123Z"}}